Tracking 19817 objects as of 19-Aug-2019
HD Live streaming from Space Station
objects crossing your sky now

SL-12 DEB

Track SL-12 DEB now!
10-day predictions


NORAD ID: 43526
Int'l Code: 2010-007Y
Perigee: 313.2 km
Apogee: 18,412.4 km
Inclination: 65.2 °
Period: 327.3 minutes
Semi major axis: 15733 km
RCS: Unknown
Launch date: March 1, 2010
Source: Commonwealth of Independent States (former USSR) (CIS)
Launch site: TYURATAM MISSILE AND SPACE COMPLEX (TTMTR)

Note: This is SATELLITE DEBRIS
aabbcc
Your satellite tracking list
Your tracking list is empty




NASA's NSSDC Master Catalog

Two Line Element Set (TLE):
1 43526U 10007Y   19122.91970342 +.00319504 +00000-0 +81965-1 0  9990
2 43526 065.2223 051.7766 5751711 033.2438 352.2901 04.39898364013936
Source of the keplerian elements: AFSPC